[[{"header":{"parameterUnit":"m.s-1","parameterCategory":1,"la1":30.2991,"la2":30.254,"lo1":-89.0895,"lo2":-89.0444,"dy":0.0017,"dx":0.0017,"nx":28,"ny":28,"refTime":"2023-10-26T09:00:00:Z","depth":0,"parameterNumber":2,"parameterNumberName":"U-component_of_WINDS"},"data":[0,0,0,0,0,0,0,0,0,0,0,0,0,0,0,0,0,0,0,0,0,0,0,0,0,0,0,0,0,0,0,0,0,0,0,0,0,0,0,0,0,0,0,0,0,0,0,0,0,0,0,0,0,0,0,0,0,0,-3.4246,-3.4247,0,-3.4315,-3.4315,-3.4316,-3.4237,-3.4234,-3.4231,-3.4228,-3.4297,-3.4302,-3.4306,0,0,0,0,0,0,0,0,0,0,0,0,0,-3.4048,-3.4052,-3.4246,-3.4247,-3.4248,-3.4315,-3.4316,-3.4316,-3.4238,-3.4234,-3.423,-3.4227,-3.4296,-3.4301,-3.4307,0,0,0,0,0,0,0,0,0,0,0,0,0,-3.4127,-3.4053,-3.4246,-3.4217,-3.4215,-3.4314,-3.4316,-3.4317,-3.4238,-3.4234,-3.4229,-3.4225,-3.4294,-3.4301,-3.4307,-3.4439,0,0,-3.4328,-3.4331,0,0,0,0,0,0,0,0,-3.4123,-3.4134,-3.422,-3.4219,-3.4217,-3.4263,-3.4271,-3.4358,-3.424,-3.4229,-3.4228,-3.4223,-3.4289,-3.4296,-3.4319,-3.4442,-3.4445,-3.4329,-3.4333,-3.4336,-3.4338,0,0,0,0,0,0,0,-3.4117,-3.4131,-3.4273,-3.4222,-3.422,-3.42,-3.4207,-3.4287,-3.4283,-3.423,-3.4224,-3.4234,-3.4287,-3.4312,-3.432,-3.4446,-3.4329,-3.4335,-3.4339,-3.4342,-3.4682,-3.4687,0,0,0,0,0,0,-3.4115,-3.4127,-3.4271,-3.4275,-3.4158,-3.4208,-3.4215,-3.4253,-3.4282,-3.4283,-3.4237,-3.423,-3.4303,-3.4312,-3.4322,-3.4478,-3.4336,-3.4342,-3.4346,-3.4677,-3.4683,-3.4688,0,0,0,0,0,0,-3.4111,-3.4129,-3.4268,-3.42,-3.4216,-3.4216,-3.4259,-3.4256,-3.4281,-3.4288,-3.4287,-3.4263,-3.43,-3.4312,-3.4411,-3.4479,-3.4346,-3.4352,-3.4671,-3.4679,-3.4686,-3.4792,0,0,0,0,0,0,-3.4106,-3.4128,-3.4177,-3.4201,-3.422,-3.4356,-3.4263,-3.4261,-3.4293,-3.4284,-3.4312,-3.4312,-3.4297,-3.4401,-3.4418,-3.4486,-3.4357,-3.4665,-3.4675,-3.4683,-3.4782,-3.4802,-3.4819,0,0,0,0,0,-3.4099,-3.4204,-3.418,-3.4198,-3.4282,-3.436,-3.4371,-3.4351,-3.4299,-3.4349,-3.4354,-3.4311,-3.447,-3.4412,-3.443,-3.4502,-3.4661,-3.4672,-3.4683,-3.4774,-3.4798,-3.4818,0,0,0,0,0,0,-3.4187,-3.4206,-3.418,-3.4296,-3.4328,-3.4347,-3.4409,-3.4377,-3.4423,-3.4413,-3.4386,-3.4394,-3.4498,-3.451,-3.4445,-3.4631,-3.4556,-3.4572,-3.462,-3.4642,-3.466,-3.4655,-3.4363,0,0,0,0,0,-3.422,-3.4282,-3.4296,-3.4397,-3.4414,-3.4409,-3.4442,-3.4425,-3.4456,-3.4468,-3.448,-3.4512,-3.4569,-3.4606,-3.4659,-3.4784,-3.4789,-3.4843,-3.4861,-3.4876,-3.4889,-3.4957,-3.4981,-3.4724,-3.4724,-3.4724,0,0,-3.4288,-3.4307,-3.4347,-3.4415,-3.4437,-3.4502,-3.442,-3.4492,-3.454,-3.4479,-3.4573,-3.4583,-3.4617,-3.4729,-3.478,-3.4742,-3.4961,-3.489,-3.4902,-3.4907,-3.4971,-3.4995,-3.5017,-3.4732,-3.4731,-3.4729,0,0,-3.4446,-3.4467,-3.4553,-3.4578,-3.4612,-3.4609,-3.463,-3.4655,-3.466,-3.4754,-3.471,-3.4767,-3.4865,-3.4891,-3.4917,-3.5089,-3.5051,-3.5107,-3.5201,-3.5268,-3.5288,-3.5306,-3.5367,-3.5389,-3.512,-3.512,-3.512,0,-3.4526,-3.4622,-3.4601,-3.4677,-3.4708,-3.4658,-3.4746,-3.477,-3.4821,-3.4843,-3.4801,-3.4925,-3.4944,-3.5062,-3.5104,-3.5127,-3.5151,-3.5102,-3.5287,-3.5305,-3.5321,-3.5379,-3.5402,-3.5126,-3.5126,-3.5125,-3.5124,0,-3.472,-3.4788,-3.4853,-3.4904,-3.4943,-3.5025,-3.5016,-3.5058,-3.5039,-3.504,-3.5138,-3.5159,-3.5216,-3.5243,-3.5224,-3.536,-3.5335,-3.5291,-3.5215,-3.5352,-3.5406,-3.5428,-3.5136,-3.5133,-3.5131,-3.513,0,0,-3.4932,-3.4972,-3.4997,-3.502,-3.5056,-3.5108,-3.5188,-3.5244,-3.5281,-3.5318,-3.5385,-3.5471,-3.543,-3.546,-3.5444,-3.5503,-3.5637,-3.5451,-3.5451,-3.5485,-3.5789,-3.5821,-3.5847,-3.5614,-3.5618,-3.5621,-3.5786,0,-3.509,-3.5228,-3.5213,-3.5345,-3.5408,-3.5362,-3.5432,-3.5462,-3.5466,-3.552,-3.5525,-3.5586,-3.5528,-3.5546,-3.5602,-3.5609,-3.5698,-3.5597,-3.5675,-3.5678,-3.5667,-3.5876,-3.591,-3.6064,-3.5807,-3.5811,-3.5813,0,-3.5292,-3.5338,-3.5476,-3.5505,-3.553,-3.5593,-3.5644,-3.5697,-3.5731,-3.573,-3.5765,-3.5739,-3.582,-3.5744,-3.5855,-3.5787,-3.5819,-3.5827,-3.5833,-3.5838,-3.5753,-3.5886,-3.6113,-3.6136,-3.5846,-3.5844,-3.5841,0,-3.5432,-3.5529,-3.5624,-3.5646,-3.5681,-3.5727,-3.5743,-3.5773,-3.5809,-3.5854,-3.5877,-3.5931,-3.596,-3.6003,-3.5993,-3.5939,-3.6107,-3.603,-3.6109,-3.6109,-3.6144,-3.6142,-3.6379,-3.6167,-3.6167,-3.6166,-3.6166,0,-3.561,-3.5696,-3.5688,-3.5747,-3.5843,-3.5826,-3.5921,-3.5932,-3.596,-3.602,-3.5985,-3.6042,-3.6026,-3.6083,-3.6076,-3.617,-3.6183,-3.6185,-3.6182,-3.6188,-3.6187,-3.6207,-3.6195,-3.6172,-3.6171,-3.617,-3.6169,0,-3.5782,-3.578,-3.5881,-3.5908,-3.5916,-3.5986,-3.6008,-3.6064,-3.6067,-3.6144,-3.6161,-3.6165,-3.6231,-3.6226,-3.6299,-3.6295,-3.6411,-3.6395,-3.6399,-3.6396,-3.6474,-3.6467,-3.673,-3.6764,-3.6531,-3.6534,-3.6536,0,-3.5894,-3.596,-3.5994,-3.6032,-3.6053,-3.6115,-3.6151,-3.6138,-3.6177,-3.6222,-3.6273,-3.6336,-3.6385,-3.6492,-3.6502,-3.6558,-3.6544,-3.6632,-3.6552,-3.6556,-3.6545,-3.654,-3.6547,-3.6648,-3.665,-3.6652,-3.6654,0,-3.6094,-3.6091,-3.6145,-3.62,-3.6245,-3.6287,-3.6326,-3.6359,-3.635,-3.6397,-3.6464,-3.6502,-3.6579,-3.6641,-3.6696,-3.6713,-3.6683,-3.668,-3.6701,-3.6707,-3.6706,-3.6708,-3.6442,-3.6673,-3.6671,-3.667,-3.6669,-3.6668,-3.6239,-3.6296,-3.633,-3.6392,-3.642,-3.6458,-3.6512,-3.6522,-3.6578,-3.6639,-3.6628,-3.6704,-3.6738,-3.6808,-3.6832,-3.6891,-3.6859,-3.689,-3.6897,-3.6905,-3.6914,-3.6698,-3.6901,-3.69,-3.69,-3.6899,-3.6899,0,-3.6437,-3.6457,-3.6515,-3.657,-3.662,-3.6588,-3.663,-3.6673,-3.6741,-3.6775,-3.6825,-3.6904,-3.6965,-3.6981,-3.704,-3.7085,-3.7073,-3.7101,-3.7097,-3.7102,-3.6939,-3.6914,-3.711,-3.711,-3.711,-3.711,-3.711,-3.711,-3.6545,-3.664,-3.6641,-3.675,-3.6769,-3.6844,-3.6871,-3.6906,-3.6933,-3.7023,-3.7074,-3.7084,-3.7112,-3.7173,-3.7229,-3.7232,-3.7255,-3.7289,-3.7287,-3.7134,-3.7113,-3.7093,-3.707,-3.7295,-3.7295,-3.7445,-3.7446,-3.7447]},{"header":{"parameterUnit":"m.s-1","parameterCategory":1,"la1":30.2991,"la2":30.254,"lo1":-89.0895,"lo2":-89.0444,"dy":0.0017,"dx":0.0017,"nx":28,"ny":28,"refTime":"2023-10-26T09:00:00:Z","depth":0,"parameterNumber":3,"parameterNumberName":"V-component_of_WINDS"},"data":[0,0,0,0,0,0,0,0,0,0,0,0,0,0,0,0,0,0,0,0,0,0,0,0,0,0,0,0,0,0,0,0,0,0,0,0,0,0,0,0,0,0,0,0,0,0,0,0,0,0,0,0,0,0,0,0,0,0,0.8416,0.8417,0,0.8488,0.8488,0.8489,0.8509,0.8509,0.8508,0.8508,0.8578,0.858,0.8582,0,0,0,0,0,0,0,0,0,0,0,0,0,0.8297,0.8299,0.8416,0.8417,0.8418,0.8487,0.8488,0.8489,0.8509,0.8509,0.8508,0.8508,0.8577,0.858,0.8583,0,0,0,0,0,0,0,0,0,0,0,0,0,0.8357,0.83,0.8416,0.8437,0.8439,0.8487,0.8488,0.849,0.8509,0.8509,0.8508,0.8508,0.8576,0.858,0.8583,0.8615,0,0,0.8593,0.8595,0,0,0,0,0,0,0,0,0.8353,0.8361,0.8433,0.8435,0.8438,0.8489,0.8472,0.8532,0.851,0.8483,0.8508,0.8507,0.8549,0.8554,0.8569,0.8619,0.8622,0.8594,0.8596,0.8597,0.8598,0,0,0,0,0,0,0,0.8349,0.8358,0.8444,0.8434,0.8437,0.8442,0.845,0.8483,0.8518,0.8485,0.8487,0.8495,0.855,0.8566,0.8571,0.8623,0.8593,0.8596,0.8598,0.86,0.8705,0.8706,0,0,0,0,0,0,0.8342,0.8354,0.8442,0.8447,0.8394,0.8445,0.8453,0.8473,0.8518,0.8524,0.8495,0.8496,0.856,0.8567,0.8573,0.8616,0.8597,0.86,0.8602,0.8705,0.8706,0.8706,0,0,0,0,0,0,0.8339,0.8349,0.8439,0.8401,0.8413,0.8447,0.8469,0.8475,0.849,0.8526,0.8532,0.8505,0.856,0.8568,0.8606,0.8618,0.8602,0.8605,0.8704,0.8705,0.8706,0.87,0,0,0,0,0,0,0.8336,0.8348,0.8361,0.8401,0.8415,0.8471,0.847,0.8477,0.8497,0.8497,0.8536,0.8542,0.856,0.86,0.8609,0.8623,0.8607,0.8703,0.8704,0.8706,0.8699,0.8701,0.8702,0,0,0,0,0,0.8331,0.8355,0.8361,0.8372,0.8431,0.8471,0.8479,0.85,0.8497,0.8511,0.8534,0.8541,0.8616,0.8604,0.8614,0.8629,0.8702,0.8704,0.8705,0.8698,0.87,0.8702,0,0,0,0,0,0,0.8313,0.836,0.8368,0.8406,0.8435,0.8475,0.8491,0.8501,0.8531,0.853,0.8555,0.8563,0.8599,0.8618,0.8604,0.8664,0.8659,0.8663,0.865,0.8653,0.8654,0.8649,0.861,0,0,0,0,0,0.8314,0.8343,0.8382,0.8412,0.8426,0.8457,0.8475,0.8489,0.8519,0.8531,0.8557,0.8586,0.8616,0.8635,0.8665,0.8702,0.8712,0.8717,0.8719,0.872,0.8723,0.8746,0.875,0.8712,0.8712,0.8712,0,0,0.8315,0.8345,0.8361,0.8409,0.8433,0.8463,0.8466,0.8497,0.8519,0.8535,0.8573,0.8593,0.8627,0.8665,0.8683,0.8681,0.8736,0.8722,0.8723,0.8725,0.8749,0.8752,0.8755,0.8714,0.8713,0.8713,0,0,0.8333,0.8357,0.8386,0.8411,0.8448,0.8468,0.8475,0.8515,0.8529,0.8567,0.8581,0.8608,0.8659,0.8684,0.8702,0.8733,0.8741,0.8742,0.875,0.8772,0.8775,0.8778,0.879,0.8794,0.8745,0.8745,0.8745,0,0.8329,0.8375,0.8399,0.843,0.8451,0.847,0.8499,0.8521,0.8566,0.858,0.8578,0.8645,0.8669,0.8714,0.8722,0.8736,0.8746,0.8737,0.8773,0.8776,0.8779,0.8791,0.8795,0.8745,0.8745,0.8745,0.8745,0,0.8369,0.8401,0.842,0.8464,0.8488,0.8518,0.8547,0.8568,0.8581,0.8602,0.8641,0.8671,0.8708,0.872,0.8732,0.8768,0.8766,0.8768,0.8764,0.8782,0.8794,0.8799,0.8744,0.8744,0.8745,0.8745,0,0,0.8375,0.8436,0.8442,0.8464,0.8508,0.8533,0.8564,0.8602,0.862,0.8651,0.8679,0.8723,0.8727,0.8748,0.8763,0.8783,0.8808,0.8783,0.8785,0.8788,0.8851,0.885,0.8854,0.8814,0.8815,0.8816,0.8849,0,0.8399,0.8457,0.8481,0.8528,0.8559,0.8578,0.8606,0.8636,0.8657,0.8686,0.8709,0.8741,0.8742,0.8755,0.8776,0.88,0.8821,0.8798,0.884,0.8841,0.8832,0.886,0.8858,0.8888,0.8853,0.8854,0.8855,0,0.8434,0.8468,0.8518,0.8561,0.8575,0.8599,0.8638,0.8665,0.87,0.8714,0.874,0.8755,0.879,0.8784,0.8832,0.8816,0.8835,0.885,0.8852,0.8857,0.8849,0.8867,0.8898,0.8903,0.8862,0.8861,0.8861,0,0.8436,0.8493,0.8531,0.8549,0.8599,0.8617,0.8638,0.8673,0.8696,0.8729,0.8744,0.878,0.88,0.8828,0.8853,0.8846,0.89,0.8895,0.8913,0.8912,0.8923,0.8922,0.8958,0.8934,0.8934,0.8934,0.8934,0,0.846,0.849,0.8533,0.8556,0.8592,0.8619,0.8653,0.8676,0.8708,0.8736,0.8755,0.8781,0.8812,0.8843,0.8862,0.8901,0.8909,0.8922,0.8927,0.8921,0.8919,0.8933,0.8932,0.8935,0.8935,0.8935,0.8934,0,0.8467,0.8496,0.854,0.8585,0.8598,0.8622,0.866,0.8684,0.8707,0.8744,0.8754,0.879,0.8827,0.8855,0.8902,0.8916,0.8957,0.8962,0.8946,0.8948,0.8965,0.8963,0.9012,0.902,0.8989,0.899,0.899,0,0.848,0.8504,0.8554,0.8575,0.8597,0.8631,0.8655,0.8684,0.8707,0.8751,0.877,0.8809,0.8842,0.8901,0.8931,0.8968,0.8975,0.8989,0.898,0.8974,0.8976,0.8975,0.8978,0.899,0.899,0.899,0.8991,0,0.8502,0.8516,0.855,0.859,0.8619,0.8651,0.8683,0.87,0.8735,0.8761,0.88,0.8826,0.8877,0.8915,0.8956,0.8979,0.8991,0.8994,0.9,0.8994,0.8984,0.8991,0.895,0.8992,0.8992,0.8992,0.8992,0.8992,0.8513,0.8537,0.8576,0.8614,0.8642,0.8673,0.8699,0.8726,0.876,0.8804,0.8819,0.886,0.8897,0.8954,0.8977,0.901,0.901,0.9018,0.9021,0.9023,0.9023,0.8979,0.9017,0.9017,0.9017,0.9017,0.9017,0,0.8537,0.8564,0.8599,0.8645,0.8676,0.8686,0.8724,0.8748,0.8785,0.8819,0.8852,0.8898,0.8937,0.8971,0.9012,0.9032,0.9038,0.9041,0.904,0.9046,0.902,0.9011,0.9035,0.9035,0.9035,0.9035,0.9035,0.9035,0.8553,0.8594,0.8613,0.8669,0.8696,0.8738,0.8758,0.8788,0.8815,0.8867,0.89,0.8923,0.8958,0.9001,0.9038,0.9047,0.9061,0.9063,0.9074,0.9049,0.9047,0.9045,0.9037,0.9066,0.9066,0.9097,0.9097,0.9097]}]]